Location: Downe
(51.3167°N, 0.0500°E)
Time: 09:00:56
(UTC+00:00)

H-2A R/B - Pass Details

Date: 17 November 2019
Orbit: 500 x 543 km, 97.3° (Epoch: 11 December)

Event Time Altitude Azimuth Distance (km) Brightness Sun altitude
Rises 06:01:26 0° 18° (NNE) 2,624 6.3 -12.1°
Reaches altitude 10° 06:03:38 10° 26° (NNE) 1,729 5.5 -11.8°
Maximum altitude 06:07:09 40° 98° (E) 749 4.2 -11.3°
Drops below altitude 10° 06:10:38 10° 169° (S) 1,705 5.7 -10.7°
Sets 06:12:47 0° 177° (S) 2,583 6.5 -10.4°
